Карточка аэропорта UNWW

Внимание!
Информация на этой странице в стадии наполнения.
Если вы не увидели какой-то информации, или заметили неточность - пожалуйста сообщите нам!
Спасибо!
Команда RU-STAFF
Название аэропортаСпиченково
Название аэропорта (англ.)Spichenkovo
Превышение1023 ft. (311.8 m.)
Координаты53°48.714', 86°52.704'
Высота перехода800m
Эшелон переходаFL050
Коды ответчика5270-5277
Зона ОрВДНовосибирск РПИ (UNNT)
Данные METARUNWW 190230Z 11002MPS 9999 -SHRA BKN033CB 20/19 Q1001 R19/290250 NOSIG RMK QFE724
Проноз погоды (TAF)UNWW 190200Z 1903/2003 18003G09MPS 8000 BKN040CB TX25/1909Z TN15/1922Z TEMPO 1903/2003 23005G13MPS -TSRA BKN020CB
NOTAMshow/hide NOTAM
AWOS   TABLE

Информация о ВПП

ВПП Длина ВПП (м.) Покрытие Курс ВПП Частота ILS
012679Цементобетон14 
192679Цементобетон194111.1

Диспетчерские позиции

Позывной Наименование органа УВД Частота
UNWW_TWRНовокузнецк-Старт121.2
UNWW_APPНовокузнецк-Подход118.6



Спутниковое изображение